User: anonymous   Login
Location: ????????
(56.0167°N, 38.0333°E)
Time: 12:09:17
(UTC+00:00)
Language:

NPP - Orbit

View from above orbital plane
View from above orbital plane
View from above satellite
View from above satellite

Ground track
Ground track

The orbit data is extracted from the following two-line orbital elements,

1 37849U 11061A   25189.15856301  .00000038  00000-0  38756-4 0  9998
2 37849  98.7580 128.1119 0000778 175.9131 184.2051 14.19544396709623
Epoch (UTC): 08 July 2025 03:48:19
Eccentricity: 0.0000778
inclination: 98.7580°
perigee height: 826 km
apogee height: 827 km
right ascension of ascending node: 128.1119°
argument of perigee: 175.9131°
revolutions per day: 14.19544396
mean anomaly at epoch: 184.2051°
orbit number at epoch: 70962

The dashed part of the orbit path shows where the satellite is in the earth's shadow,  

DLR